Regional Weather Roundup
Issued by NWS Wakefield, VA

Home | Current Version | Previous Version | Text Only | Print | Product List | Glossary Off
Versions: 1 2 3 4 5 6 7 8 9 10 11 12 13 14 15 16 17 18 19 20 21 22 23 24 25 26 27 28 29 30 31 32 33 34 35 36 37 38 39 40 41 42 43 44 45 46 47 48 49 50

000
ASUS41 KAKQ 230014
RWRAKQ

REGIONAL WEATHER ROUNDUP
NATIONAL WEATHER SERVICE WAKEFIELD VA
800 PM EDT FRI MAY 22 2015

Note: "fair" indicates few or no clouds below 12,000 feet with no
significant weather and/or obstructions to visibility. * = Denotes
station may not report precipitation (e.g., rain,snow,etc.),
thunder or fog.

VAZ042-051-052>054-056-230100-
NORTHERN VIRGINIA

CITY           SKY/WX    TMP DP  RH WIND       PRES   REMARKS
WASH NATIONAL  PTCLDY    75  39  27 W12       30.12R
DULLES         PTCLDY    70  40  33 W16       30.13R
FORT BELVOIR   CLEAR     73  39  29 NW14G21   30.13R
QUANTICO       PTCLDY    72  45  37 W6        30.14R
FREDERICKSBRG* MOCLDY    73  48  41 SW6       30.14R
STAFFORD*      MOCLDY    68  48  48 CALM      30.18R
WARRENTON      PTCLDY    69  49  49 W5        30.15R
CULPEPER*      PTCLDY    70  41  34 NW3       30.15R
MANASSAS*      CLEAR     72  39  30 W7        30.14R
LEESBURG*      CLEAR     70  45  40 W14G22    30.14R
WINCHESTER     PTCLDY    68  32  26 W12G18    30.15R
FRONT ROYAL*   FAIR      66  43  42 NW3       30.15R
LURAY*         FAIR      70  43  37 W9        30.17R
$$

VAZ048-049-060>072-079>083-230100-
CENTRAL AND SOUTH CENTRAL VIRGINIA

CITY           SKY/WX    TMP DP  RH WIND       PRES   REMARKS
RICHMOND       PTCLDY    70  43  37 SW6       30.17R
CHESTERFIELD*  NOT AVBL
PETERSBURG*    CLEAR     65  54  69 CALM      30.18S
HANOVER        CLEAR     69  43  38 SW5       30.18R
TAPPAHANNOCK*  CLEAR     69  38  32 SW3       30.16R
QUINTON*       FAIR      69  47  45 CALM      30.16R
CHARLOTTSVILLE PTCLDY    71  38  29 NW5       30.15R
GORDONSVILLE*  CLOUDY    69  49  48 SW5       30.15R
ORANGE*        PTCLDY    70  46  43 CALM      30.17R
LOUISA*        MOCLDY    64  54  68 CALM      30.15R
BUMPASS*       MOCLDY    65  52  63 CALM      30.15R
FARMVILLE*     CLEAR     67  47  48 SW3       30.16S
CREWE*         FAIR      62  49  62 CALM      30.18R
FORT PICKETT*  FAIR      66  51  58 CALM      30.19R
CHASE CITY*    FAIR      68  52  56 CALM      30.20R
CLARKSVILLE*   FAIR      64  54  68 CALM      30.20R
SOUTH HILL*    CLEAR     69  47  46 CALM      30.25R
LAWRENCEVILLE* FAIR      64  52  63 CALM      30.19R
EMPORIA*       CLEAR     63  50  63 CALM      30.21R
$$

VAZ088>098-230100-
SOUTHEAST VIRGINIA

CITY           SKY/WX    TMP DP  RH WIND       PRES   REMARKS
NORFOLK        CLEAR     70  42  36 W5        30.18R
VIRGINIA BEACH CLEAR     67  45  45 SW8       30.18R
NORFOLK NAVAL  PTCLDY    74  45  35 W6        30.20R
WEST POINT*    CLEAR     72  44  37 SW5       30.18R
SALUDA*        FAIR      68  48  47 CALM      30.15R
NEWPORT NEWS   CLEAR     72  47  40 SW7       30.18R
LANGLEY AFB    CLEAR     67  48  51 W5        30.17R
FORT EUSTIS    CLEAR     69  49  49 SW3       30.16R
WILLIAMSBURG*  CLEAR     72  52  49 SW5       30.18R
HR EXEC AP*    FAIR      61  50  67 CALM      30.20R
FRANKLIN*      CLEAR     67  46  47 CALM      30.20R
WAKEFIELD      CLEAR     65  55  70 CALM      30.18R
$$

VAZ020-022-025-037-045-230100-
WEST CENTRAL AND SOUTHWEST VIRGINIA

CITY           SKY/WX    TMP DP  RH WIND       PRES   REMARKS
STAUNTON*      CLEAR     66  39  36 NW6       30.20R
WAYNESBORO*    FAIR      67  38  35 NW3       30.19R
HOT SPRINGS VA CLEAR     56  36  47 W10       30.25R
LYNCHBURG      CLEAR     66  43  43 SW3       30.21R
DANVILLE       CLEAR     68  52  56 CALM      30.21R
SOUTH BOSTON*  FAIR      66  52  60 CALM      30.20R
MARTINSVILLE   CLEAR     69  43  39 N5        30.25R
ROANOKE        PTCLDY    69  38  32 W8        30.24R
BLACKSBURG     CLEAR     62  41  45 CALM      30.29R
DUBLIN*        CLEAR     64  43  46 W3        30.28R
MARION*        CLEAR     62  40  44 W5        30.31R
HILLSVILLE*    CLEAR     62  38  41 NW7       30.28R
RICHLANDS*     FAIR      60  17  19 NW5       30.31R
WISE*          PTCLDY    61  37  41 CALM      30.32R
ABINGDON*      CLEAR     65  42  43 CALM      30.28S
$$

MDZ021>025-VAZ099-100-230100-
SOUTHERN MARYLAND AND THE DELMARVA PENINSULA

CITY           SKY/WX    TMP DP  RH WIND       PRES   REMARKS
PATUXENT RIVER PTCLDY    68  47  46 SW8       30.12R
BAY BRIDGE APT   N/A    N/A N/A N/A NW10      30.11R
LEONARDTOWN    MOCLDY    68  45  42 SW6       30.14R
DOVER          PTCLDY    69  49  49 SW9       30.05R
GEORGETOWN     CLEAR     69  45  41 SW6       30.10R
EASTON         CLEAR     70  52  52 W6        30.14R
CAMBRIDGE      CLEAR     70  46  43 SW5       30.11R
SALISBURY      CLEAR     65  46  50 SW8       30.12R
OCEAN CITY     CLEAR     67  45  45 W7        30.12R
WALLOPS ISLAND CLEAR     65  50  58 SW6       30.14R
ACCOMACK*      CLEAR     64  52  63 SW7       30.15R
$$

NCZ012>017-030>032-230100-
NORTH CENTRAL AND EASTERN NORTH CAROLINA

CITY           SKY/WX    TMP DP  RH WIND       PRES   REMARKS
ROANOKE RAPIDS FAIR      64  50  59 W3        30.21R
RALEIGH        PTCLDY    68  48  48 CALM      30.22R
ELIZABETH CITY CLEAR     66  52  60 SW3       30.20R
AHOSKIE*       CLEAR     63  49  60 CALM      30.21R
EDENTON*       CLEAR     69  49  49 SW3       30.20R
CURRITUCK*     CLEAR     67  47  50 CALM      30.20R
KILL DEVIL HLS CLEAR     63  43  47 E3        30.20R
MANTEO         CLEAR     64  46  51 E3        30.21R
CAPE HATTERAS  CLEAR     59  46  62 E3        30.22R
TARBORO*       FAIR      69  55  60 CALM      30.22R
GOLDSBORO      MOCLDY    71  51  49 CALM      30.19R
WASHINGTON     PTCLDY   N/A N/A N/A CALM      30.22R
GREENVILLE     PTCLDY    66  54  63 CALM      30.22R
NEW BERN       PTCLDY    68  50  52 NW5       30.23R
WILMINGTON     CLEAR     69  58  67 CALM      30.21R
$$

VAZ048-230100-
ELSEWHERE

CITY           SKY/WX    TMP DP  RH WIND       PRES   REMARKS
HARRISBURG PA  PTCLDY    69  30  23 NW20G33   30.08R
BALTIMORE      PTCLDY    69  42  37 W12G21    30.10R
ANNAPOLIS      PTCLDY    71  41  33 W6        30.10R
ANDREWS AFB    CLEAR     72  40  30 W13G23    30.11R
PHILADELPHIA   PTCLDY    73  39  29 W13       30.05R
HENDERSON NC   CLEAR     66  42  41 CALM      30.22R
GREENSBORO     PTCLDY    71  38  29 N3        30.21R
ROCKY MOUNT    CLEAR     67  50  54 CALM      30.21R
$$

VAZ100-230100-
MARINE

STATION/POSITION TIME  TEMP    WIND        PRES    WAVE   SWELL
                       AIR SEA DIR/SP/G            HT/PER HT/PER
                 (UTC) (F)     (DEG/KT/KT) (MB)    (FT/S) (FT/S)
BRANDYWINE LGT   2300   69 63  250/ 22/ 23 1017.7R
CAPE MAY NJ      2300   69 69  250/ 16/ 18 1017.3R
LEWES DE         2300   72 63  260/ 15/ 18 1018.1R
15NM E FENWICK I 2350   64 60              1018.9R   2/ 3
OCEAN-CITY-INLET 2300   69 64  270/ 11/ 14 1018.9R
WACHAPREAGUE VA  2300   71 71  240/  5/  9 1020.4R
THOMAS POINT MD  0000   73 65  290/  9/ 11 1020.1R
GOOSES REEF MD   0000   70 66  250/ 10/ 12 1020.7R   2/ 3
SOLOMONS ISLAND  2300      68                N/A
BISHOPS HEAD MD  2300   70 68  230/ 11/ 13 1019.2R
PINEY POINT MD   2300          270/ 10/ 11   N/A
CAMBRIDGE MD     2300   72 70  220/  8/ 12 1018.8R
LEWISETTA VA     2300   72 70              1019.8R
RAPPAHANNOCK LGT 2300          190/  7/  8 1021.1R
STINGRAY PT      0000   71 70  250/  8/ 10 1020.9R
YORK RVR RNG VA  2300   72     260/ 12/ 13 1020.3R
YORKTOWN VA      2300   71 71  250/  8/  9 1020.7R
JAMESTOWN VA     0000   71 74  230/  6/  6 1020.8R
DOMINION TERM VA 2300   72     230/  3/  5 1021.3R
KIPTOPEKE VA     2300      72  220/  6/  8   N/A
CHES BAY BRIDGE  2300   70 69  230/  9/ 10 1020.8R
CAPE HENRY VA    2300   71     230/  7/  9 1020.0R
CHESAPEAKE LGHT  2300   63     190/ 12/ 12 1022.0R
WILLOUBY STN VA  2300   71     350/  2/  2 1022.0R
CAPE HENRY BUOY  2328      63                N/A     2/ 7
1ST LANDING BUOY 0000      67              1021.6R
CAPE CHARLES BUO 2326      66                N/A     2/ 7   2/ 7
OFFSHORE WE BUOY 2311      61                N/A     2/ 7   2/ 7
64NM E OF VA BCH 2350   61 61  220/  8/ 10 1021.9R   3/ 6   3/ 6
DUCK PIER NC     2300   67 67  130/  7/  8 1021.4R
44100 DUCK FRF   2324      62                N/A     3/ 7
44056 DUCK FRF   2311      65                N/A     3/ 7
OREGON INLET NC  2300   64 68   50/  6/  9 1022.4R
HATTERAS NC      2300   67 73   90/  3/  7 1022.2R
DIAMOND SHLS NC  2350   67 78   40/  8/ 10 1023.1R   3/ 7   3/ 7
CAPE LOOKOUT NC  0000   67      70/  6/  7 1022.9R
$$


USA.gov is the U.S. government's official web portal to all federal, state and local government web resources and services.